This is the latest recevied weather packets stored in our database for station/object N0NAI-13. If no packets are shown the sender has not sent any weather packets the latest 10 day(s).
| Time | Temp. | Humidity | Pressure | Rain* | Wind** | Luminosity | Snow |
|---|---|---|---|---|---|---|---|
| 1777760116 | 21.11° C | 30% | 1015.9 hPa | 0 mm | - | - | - |
| 1777759530 | 21.11° C | 31% | 1016.1 hPa | 0 mm | - | - | - |
| 1777757721 | 20.56° C | 30% | 1016.4 hPa | 0 mm | - | - | - |
| 1777757124 | 20.56° C | 31% | 1016.5 hPa | 0 mm | - | - | - |
| 1777756526 | 20.56° C | 31% | 1016.7 hPa | 0 mm | - | - | - |
| 1777755928 | 19.44° C | 32% | 1017 hPa | 0 mm | - | - | - |
| 1777755332 | 19.44° C | 32% | 1017.2 hPa | 0 mm | - | - | - |
| 1777754119 | 18.33° C | 32% | 1017.5 hPa | 0 mm | - | - | - |
| 1777753522 | 18.33° C | 32% | 1017.6 hPa | 28.19 mm | - | - | - |
| 1777752925 | 17.22° C | 33% | 1017.7 hPa | 28.19 mm | - | - | - |
| 1777752328 | 18.33° C | 33% | 1017.9 hPa | 28.19 mm | - | - | - |
| 1777751731 | 18.89° C | 33% | 1018.3 hPa | 28.19 mm | - | - | - |
| 1777751116 | 18.33° C | 34% | 1018.3 hPa | 28.19 mm | - | - | - |
| 1777750519 | 17.78° C | 34% | 1018.4 hPa | 28.19 mm | - | - | - |
| 1777749921 | 18.89° C | 34% | 1018.5 hPa | 0 mm | - | - | - |
| 1777749318 | 18.33° C | 33% | 1018.9 hPa | 0 mm | - | - | - |
| 1777748715 | 18.33° C | 33% | 1019.1 hPa | 0 mm | - | - | - |
| 1777748130 | 17.78° C | 34% | 1019.2 hPa | 0 mm | - | - | - |
| 1777747533 | 17.78° C | 34% | 1019.4 hPa | 0 mm | - | - | - |
| 1777746918 | 17.78° C | 35% | 1019.5 hPa | 0 mm | - | - | - |
| 1777746321 | 17.78° C | 34% | 1019.5 hPa | 0 mm | - | - | - |
| 1777745724 | 17.78° C | 35% | 1019.7 hPa | 0 mm | - | - | - |
| 1777745127 | 17.22° C | 35% | 1019.7 hPa | 0 mm | - | - | - |
| 1777744530 | 16.67° C | 35% | 1019.9 hPa | 0 mm | - | - | - |
| 1777743933 | 16.11° C | 35% | 1020.1 hPa | 0 mm | - | - | - |
* Rain latest hour (hover to see other rain measurements)
** Current wind speed in m/s (hover to see current wind gust speed)